FW0800 Weather Reports


time (UTC)temp
C
wind
direction
speed
KPH
gust
KPH
rain 1hr
cm
rain 24hr
cm
rain mn
cm
humidity
%
barometer
mb
20260504045610 8 227 3.2 9.7 0.00 0.00 0.00 65 1002.8
20260504042608 8 235 1.6 4.8 0.00 0.00 0.00 68 1003.5
20260504035609 9 236 0.0 1.6 0.00 0.00 0.00 63 1004.4
20260504032608 10 236 0.0 1.6 0.00 0.00 0.00 58 1005.0
20260504025609 12 236 0.0 1.6 0.00 0.00 0.00 51 1005.4
20260504022608 14 236 0.0 0.0 0.00 0.00 0.00 43 1005.8
20260504012607 18 244 1.6 11.3 0.00 0.00 0.00 30 1006.0
20260504005607 19 271 4.8 12.9 0.00 0.00 0.00 28 1006.0
20260504002604 20 236 3.2 12.9 0.00 0.00 0.00 26 1006.0
20260503225604 22 249 6.4 19.3 0.00 0.00 0.00 24 1006.8
20260503222605 22 342 6.4 20.9 0.00 0.00 0.00 24 1006.9
20260503215604 22 282 9.7 20.9 0.00 0.00 0.00 22 1007.2
20260503212602 23 340 6.4 17.7 0.00 0.00 0.00 22 1007.4
20260503205602 22 32 6.4 20.9 0.00 0.00 0.00 22 1007.6
20260503202602 22 298 6.4 16.1 0.00 0.00 0.00 24 1008.1
20260503195601 21 334 9.7 24.1 0.00 0.00 0.00 23 1008.4
20260503192602 21 347 8.0 27.4 0.00 0.00 0.00 23 1008.5
20260503185601 21 355 6.4 20.9 0.00 0.00 0.00 24 1009.1
20260503182600 21 38 9.7 29.0 0.00 0.00 0.00 25 1009.2
20260503175600 20 340 9.7 22.5 0.00 0.00 0.00 28 1009.5
20260503172559 20 313 9.7 20.9 0.00 0.00 0.00 26 1009.5